Stündliche Wetter Jugowa

Heute, 3 März, Mittwoch

Zeit Temperatur Niederschläge Wind Luftdruck Luftfeuchtigkeit
00:00 +6°C° 0 mm 1 m/S 751 mmHg 73%
01:00 +6°C° 0 mm 1 m/S 751 mmHg 72%
02:00 +6°C° 0 mm 1 m/S 750 mmHg 70%
03:00 +6°C° 0 mm 1 m/S 750 mmHg 69%
04:00 +5°C° 0 mm 1 m/S 749 mmHg 67%
05:00 +5°C° 0 mm 1 m/S 749 mmHg 66%
06:00 +5°C° 0 mm 1 m/S 749 mmHg 65%
07:00 +5°C° 0 mm 1 m/S 749 mmHg 62%
08:00 +7°C° 0 mm 1 m/S 749 mmHg 58%
09:00 +9°C° 0 mm 1 m/S 749 mmHg 53%
10:00 +11°C° 0 mm 1 m/S 749 mmHg 48%
11:00 +12°C° 0 mm 1 m/S 748 mmHg 46%
12:00 +13°C° 0 mm 2 m/S 748 mmHg 44%
13:00 +14°C° 0 mm 2 m/S 747 mmHg 41%
14:00 +13°C° 0 mm 2 m/S 746 mmHg 45%
15:00 +13°C° 0 mm 2 m/S 746 mmHg 48%
16:00 +13°C° 0 mm 2 m/S 745 mmHg 52%
17:00 +10°C° 0 mm 2 m/S 745 mmHg 58%
18:00 +9°C° 0 mm 2 m/S 745 mmHg 65%
19:00 +7°C° 0 mm 2 m/S 744 mmHg 71%
20:00 +7°C° 0 mm 2 m/S 744 mmHg 70%
21:00 +5°C° 0 mm 3 m/S 744 mmHg 69%
22:00 +5°C° 0 mm 3 m/S 743 mmHg 68%
23:00 +5°C° 0 mm 3 m/S 743 mmHg 70%

Morgen, 4 März, Donnerstag

Zeit Temperatur Niederschläge Wind Luftdruck Luftfeuchtigkeit
00:00 +5°C° 0 mm 3 m/S 743 mmHg 71%
01:00 +5°C° 0 mm 3 m/S 742 mmHg 72%
02:00 +5°C° 0 mm 3 m/S 742 mmHg 75%
03:00 +5°C° 0 mm 3 m/S 741 mmHg 78%
04:00 +4°C° 0 mm 3 m/S 740 mmHg 80%
05:00 +4°C° 0 mm 3 m/S 740 mmHg 83%
06:00 +4°C° 0 mm 3 m/S 740 mmHg 86%
07:00 +4°C° 0 mm 3 m/S 740 mmHg 89%
08:00 +5°C° 0 mm 4 m/S 740 mmHg 82%
09:00 +7°C° 0 mm 4 m/S 740 mmHg 75%
10:00 +8°C° 0 mm 5 m/S 740 mmHg 68%
11:00 +9°C° 0 mm 5 m/S 739 mmHg 64%
12:00 +10°C° 0 mm 5 m/S 739 mmHg 60%
13:00 +12°C° 0 mm 5 m/S 739 mmHg 55%
14:00 +10°C° 0.1 mm 5 m/S 738 mmHg 62%
15:00 +9°C° 0.1 mm 5 m/S 738 mmHg 68%
16:00 +8°C° 0.1 mm 4 m/S 737 mmHg 74%
17:00 +7°C° 0.3 mm 4 m/S 737 mmHg 78%
18:00 +7°C° 0.3 mm 3 m/S 737 mmHg 83%
19:00 +5°C° 0.3 mm 3 m/S 737 mmHg 87%
20:00 +5°C° 0.2 mm 3 m/S 737 mmHg 88%
21:00 +4°C° 0.2 mm 3 m/S 737 mmHg 89%
22:00 +3°C° 0.2 mm 3 m/S 737 mmHg 89%
23:00 +3°C° 0.4 mm 3 m/S 737 mmHg 89%

übermorgen, 5 März, Freitag

Zeit Temperatur Niederschläge Wind Luftdruck Luftfeuchtigkeit
00:00 +3°C° 0.4 mm 2 m/S 737 mmHg 88%
01:00 +3°C° 0.4 mm 2 m/S 737 mmHg 87%
02:00 +1°C° 0.3 mm 3 m/S 737 mmHg 89%
03:00 0°C° 0.3 mm 4 m/S 738 mmHg 92%
04:00 -1°C° 0.3 mm 4 m/S 738 mmHg 95%
05:00 -2°C° 0.4 mm 4 m/S 739 mmHg 93%
06:00 -2°C° 0.4 mm 4 m/S 739 mmHg 92%
07:00 -3°C° 0.4 mm 4 m/S 740 mmHg 90%
08:00 -2°C° 0.1 mm 4 m/S 740 mmHg 85%
09:00 -2°C° 0.1 mm 4 m/S 741 mmHg 79%
10:00 -2°C° 0.1 mm 4 m/S 741 mmHg 73%
11:00 -1°C° 0 mm 4 m/S 742 mmHg 67%
12:00 0°C° 0 mm 4 m/S 742 mmHg 61%
13:00 0°C° 0 mm 4 m/S 742 mmHg 55%
14:00 0°C° 0 mm 4 m/S 742 mmHg 54%
15:00 0°C° 0 mm 4 m/S 743 mmHg 53%
16:00 0°C° 0 mm 4 m/S 743 mmHg 52%
17:00 0°C° 0 mm 3 m/S 743 mmHg 57%
18:00 -1°C° 0 mm 2 m/S 744 mmHg 61%
19:00 -1°C° 0 mm 2 m/S 745 mmHg 65%
20:00 -2°C° 0 mm 2 m/S 745 mmHg 67%
21:00 -2°C° 0 mm 2 m/S 746 mmHg 69%
22:00 -2°C° 0 mm 2 m/S 746 mmHg 70%
23:00 -3°C° 0 mm 2 m/S 746 mmHg 71%

6 März, Samstag

Zeit Temperatur Niederschläge Wind Luftdruck Luftfeuchtigkeit
00:00 -3°C° 0 mm 2 m/S 747 mmHg 71%
01:00 -3°C° 0 mm 2 m/S 747 mmHg 72%
02:00 -4°C° 0 mm 2 m/S 748 mmHg 73%
03:00 -4°C° 0 mm 2 m/S 748 mmHg 74%
04:00 -4°C° 0 mm 2 m/S 748 mmHg 75%
05:00 -4°C° 0 mm 2 m/S 748 mmHg 75%
06:00 -4°C° 0 mm 2 m/S 749 mmHg 75%
07:00 -4°C° 0 mm 2 m/S 749 mmHg 75%
08:00 -3°C° 0 mm 2 m/S 750 mmHg 68%
09:00 -1°C° 0 mm 3 m/S 750 mmHg 61%
10:00 0°C° 0 mm 3 m/S 750 mmHg 53%
11:00 0°C° 0 mm 3 m/S 750 mmHg 50%
12:00 +1°C° 0 mm 3 m/S 750 mmHg 46%
13:00 +2°C° 0 mm 3 m/S 750 mmHg 42%
14:00 +2°C° 0 mm 3 m/S 750 mmHg 43%
15:00 +2°C° 0 mm 3 m/S 750 mmHg 43%
16:00 +2°C° 0 mm 3 m/S 749 mmHg 44%
17:00 +1°C° 0 mm 2 m/S 749 mmHg 49%
18:00 -1°C° 0 mm 2 m/S 749 mmHg 54%
19:00 -2°C° 0 mm 2 m/S 749 mmHg 60%
20:00 -2°C° 0 mm 2 m/S 749 mmHg 60%
21:00 -2°C° 0 mm 2 m/S 749 mmHg 60%
22:00 -3°C° 0 mm 2 m/S 749 mmHg 60%
23:00 -3°C° 0 mm 2 m/S 748 mmHg 60%

7 März, Sonntag

Zeit Temperatur Niederschläge Wind Luftdruck Luftfeuchtigkeit
00:00 -3°C° 0 mm 2 m/S 748 mmHg 60%
01:00 -3°C° 0 mm 2 m/S 748 mmHg 60%
02:00 -3°C° 0 mm 2 m/S 747 mmHg 60%
03:00 -4°C° 0 mm 3 m/S 747 mmHg 59%
04:00 -4°C° 0 mm 3 m/S 746 mmHg 59%
05:00 -4°C° 0 mm 3 m/S 746 mmHg 59%
06:00 -4°C° 0 mm 3 m/S 746 mmHg 59%
07:00 -4°C° 0 mm 3 m/S 746 mmHg 59%
08:00 -1°C° 0 mm 3 m/S 746 mmHg 55%
09:00 -1°C° 0 mm 4 m/S 746 mmHg 52%
10:00 +1°C° 0 mm 4 m/S 746 mmHg 48%
11:00 +3°C° 0 mm 4 m/S 745 mmHg 47%
12:00 +4°C° 0 mm 4 m/S 745 mmHg 46%
13:00 +4°C° 0 mm 4 m/S 744 mmHg 45%
14:00 +4°C° 0 mm 4 m/S 744 mmHg 47%
15:00 +4°C° 0 mm 3 m/S 743 mmHg 48%
16:00 +4°C° 0 mm 3 m/S 742 mmHg 49%
17:00 +2°C° 0 mm 3 m/S 742 mmHg 56%
18:00 +2°C° 0 mm 2 m/S 742 mmHg 63%
19:00 +1°C° 0 mm 1 m/S 742 mmHg 69%
20:00 +1°C° 0 mm 1 m/S 742 mmHg 70%
21:00 0°C° 0 mm 1 m/S 742 mmHg 71%
22:00 0°C° 0 mm 1 m/S 742 mmHg 72%
23:00 0°C° 0 mm 1 m/S 741 mmHg 71%

8 März, Montag

Zeit Temperatur Niederschläge Wind Luftdruck Luftfeuchtigkeit
00:00 0°C° 0 mm 1 m/S 741 mmHg 71%
01:00 0°C° 0 mm 1 m/S 741 mmHg 71%
02:00 0°C° 0 mm 1 m/S 741 mmHg 71%
03:00 0°C° 0 mm 1 m/S 740 mmHg 71%
04:00 0°C° 0 mm 1 m/S 740 mmHg 71%
05:00 0°C° 0 mm 1 m/S 740 mmHg 72%
06:00 0°C° 0 mm 1 m/S 740 mmHg 72%
07:00 0°C° 0 mm 1 m/S 740 mmHg 72%
08:00 +1°C° 0 mm 1 m/S 740 mmHg 71%
09:00 +1°C° 0 mm 2 m/S 741 mmHg 70%
10:00 +2°C° 0 mm 2 m/S 741 mmHg 69%
11:00 +2°C° 0 mm 2 m/S 741 mmHg 66%
12:00 +2°C° 0 mm 2 m/S 741 mmHg 64%
13:00 +3°C° 0 mm 2 m/S 741 mmHg 62%
14:00 +2°C° 0 mm 2 m/S 741 mmHg 63%
15:00 +2°C° 0 mm 2 m/S 741 mmHg 64%
16:00 +2°C° 0 mm 2 m/S 741 mmHg 65%
17:00 +1°C° 0 mm 2 m/S 741 mmHg 70%
18:00 +1°C° 0 mm 1 m/S 741 mmHg 76%
19:00 0°C° 0 mm 1 m/S 741 mmHg 82%
20:00 0°C° 0.1 mm 1 m/S 742 mmHg 85%
21:00 -2°C° 0.1 mm 2 m/S 742 mmHg 88%
22:00 -2°C° 0.1 mm 2 m/S 743 mmHg 91%
23:00 -2°C° 0.2 mm 2 m/S 743 mmHg 90%
Mehr zeigen

Wir brauchen deine Erlaubnis

Meteoprog und unser Service Anbieter werden persönliche Daten aufbewahren, so wie Cookies, Geräte Bezeichnung oder ähnliche Technologien von deinem Gerät und Prozess, so wie Persönliche Daten Inhalte und Werbungen, genauso wie social Media und den Verkehr zu analysieren.

  • Aufbewahrung und/oder Zugang zu deiner Geräte Informationen.

    Cookies, Geräte Bezeichnung oder andere Informationen, können aufbewahrt oder Zugang zu deinem Gerät erhalten, für den Grund, der oben angegeben wird.

  • Personalisierte Werbung und Inhalte, Messungen, Einblick in das Publikum und Produkt Entwicklung.

    Werbungen und Inhalte können personalisiert werden, basierend auf ein Profil. Mehr Daten können besser personalisierte Werbungen und Inhalte hinzufügen. Werbung und Inhalte können gezeigt und gemessen werden. Einblicke über das Publikum, welche die Werbung gesehen haben und den Inhalt, können abgeleitet werden. So wie Daten können genutzt werden, um es zu verbessern oder die Benutzer Erfahrung zu verbessern das System und die Software.

Wenn du “Ich stimme zu” klickst, erlaubst du uns, die Cookies zu benutzen die Geräte Bezeichnung, den Web oder ähnliche Technologien zu benutzen. Deine Settings, können in deinem Gerät bei deinem Browser geändert werden.

Für den bestimmten Zweck, berechtigten Interessen beruhen darauf, mehr als auf den Inhalt. Du kannst mehr darüber in unseren Privaten und Cookie Politik lesen.